#datetime,building,power
2022-12-08T00:00:00,axn,31.25
2022-12-08T00:01:00,axn,31.01
2022-12-08T00:02:00,axn,30.62
2022-12-08T00:03:00,axn,30.50
2022-12-08T00:04:00,axn,33.85
2022-12-08T00:05:00,axn,33.45
2022-12-08T00:06:00,axn,30.11
2022-12-08T00:07:00,axn,30.39
2022-12-08T00:08:00,axn,31.00
2022-12-08T00:09:00,axn,30.36
2022-12-08T00:10:00,axn,30.44
2022-12-08T00:11:00,axn,30.08
2022-12-08T00:12:00,axn,30.33
2022-12-08T00:13:00,axn,30.45
2022-12-08T00:14:00,axn,30.49
2022-12-08T00:15:00,axn,30.53
2022-12-08T00:16:00,axn,30.36
2022-12-08T00:17:00,axn,30.35
2022-12-08T00:18:00,axn,30.31
2022-12-08T00:19:00,axn,31.04
2022-12-08T00:20:00,axn,30.49
2022-12-08T00:21:00,axn,30.46
2022-12-08T00:22:00,axn,30.28
2022-12-08T00:23:00,axn,30.27
2022-12-08T00:24:00,axn,30.19
2022-12-08T00:25:00,axn,33.05
2022-12-08T00:26:00,axn,33.08
2022-12-08T00:27:00,axn,33.27
2022-12-08T00:28:00,axn,30.27
2022-12-08T00:29:00,axn,30.33
2022-12-08T00:30:00,axn,30.62
2022-12-08T00:31:00,axn,30.38
2022-12-08T00:32:00,axn,30.39
2022-12-08T00:33:00,axn,30.24
2022-12-08T00:34:00,axn,29.46
2022-12-08T00:35:00,axn,29.32
2022-12-08T00:36:00,axn,29.09
2022-12-08T00:37:00,axn,29.29
2022-12-08T00:38:00,axn,29.04
2022-12-08T00:39:00,axn,29.00
2022-12-08T00:40:00,axn,28.89
2022-12-08T00:41:00,axn,28.96
2022-12-08T00:42:00,axn,28.90
2022-12-08T00:43:00,axn,28.84
2022-12-08T00:44:00,axn,28.78
2022-12-08T00:45:00,axn,28.81
2022-12-08T00:46:00,axn,29.11
2022-12-08T00:47:00,axn,28.95
2022-12-08T00:48:00,axn,29.01
2022-12-08T00:49:00,axn,29.00
2022-12-08T00:50:00,axn,29.12
2022-12-08T00:51:00,axn,29.16
2022-12-08T00:52:00,axn,29.19
2022-12-08T00:53:00,axn,29.24
2022-12-08T00:54:00,axn,29.49
2022-12-08T00:55:00,axn,29.51
2022-12-08T00:56:00,axn,29.62
2022-12-08T00:57:00,axn,29.39
2022-12-08T00:58:00,axn,29.48
2022-12-08T00:59:00,axn,29.82
2022-12-08T01:00:00,axn,29.61
2022-12-08T01:01:00,axn,29.55
2022-12-08T01:02:00,axn,29.66
2022-12-08T01:03:00,axn,29.47
2022-12-08T01:04:00,axn,29.64
2022-12-08T01:05:00,axn,29.51
2022-12-08T01:06:00,axn,29.36
2022-12-08T01:07:00,axn,29.23
2022-12-08T01:08:00,axn,29.69
2022-12-08T01:09:00,axn,29.47
2022-12-08T01:10:00,axn,29.86
2022-12-08T01:11:00,axn,29.46
2022-12-08T01:12:00,axn,29.37
2022-12-08T01:13:00,axn,29.43
2022-12-08T01:14:00,axn,29.35
2022-12-08T01:15:00,axn,30.01
2022-12-08T01:16:00,axn,29.13
2022-12-08T01:17:00,axn,37.35
2022-12-08T01:18:00,axn,37.53
2022-12-08T01:19:00,axn,51.82
2022-12-08T01:20:00,axn,52.22
2022-12-08T01:21:00,axn,51.63
2022-12-08T01:22:00,axn,51.69
2022-12-08T01:23:00,axn,51.35
2022-12-08T01:24:00,axn,51.44
2022-12-08T01:25:00,axn,37.19
2022-12-08T01:26:00,axn,37.34
2022-12-08T01:27:00,axn,37.54
2022-12-08T01:28:00,axn,37.72
2022-12-08T01:29:00,axn,37.74
2022-12-08T01:30:00,axn,37.72
2022-12-08T01:31:00,axn,37.80
2022-12-08T01:32:00,axn,38.02
2022-12-08T01:33:00,axn,37.74
2022-12-08T01:34:00,axn,37.71
2022-12-08T01:35:00,axn,37.27
2022-12-08T01:36:00,axn,37.35
2022-12-08T01:37:00,axn,37.61
2022-12-08T01:38:00,axn,37.80
2022-12-08T01:39:00,axn,37.65
2022-12-08T01:40:00,axn,37.73
2022-12-08T01:41:00,axn,37.86
2022-12-08T01:42:00,axn,37.75
2022-12-08T01:43:00,axn,37.71
2022-12-08T01:44:00,axn,37.46
2022-12-08T01:45:00,axn,37.60
2022-12-08T01:46:00,axn,37.29
2022-12-08T01:47:00,axn,29.00
2022-12-08T01:48:00,axn,29.03
2022-12-08T01:49:00,axn,28.92
2022-12-08T01:50:00,axn,28.91
2022-12-08T01:51:00,axn,28.78
2022-12-08T01:52:00,axn,28.87
2022-12-08T01:53:00,axn,28.72
2022-12-08T01:54:00,axn,28.90
2022-12-08T01:55:00,axn,28.76
2022-12-08T01:56:00,axn,28.91
2022-12-08T01:57:00,axn,29.03
2022-12-08T01:58:00,axn,29.29
2022-12-08T01:59:00,axn,29.04
2022-12-08T02:00:00,axn,29.26
2022-12-08T02:01:00,axn,29.29
2022-12-08T02:02:00,axn,29.49
2022-12-08T02:03:00,axn,29.43
2022-12-08T02:04:00,axn,29.45
2022-12-08T02:05:00,axn,29.46
2022-12-08T02:06:00,axn,30.38
2022-12-08T02:07:00,axn,29.49
2022-12-08T02:08:00,axn,29.73
2022-12-08T02:09:00,axn,29.38
2022-12-08T02:10:00,axn,29.01
2022-12-08T02:11:00,axn,29.56
2022-12-08T02:12:00,axn,29.22
2022-12-08T02:13:00,axn,29.54
2022-12-08T02:14:00,axn,29.40
2022-12-08T02:15:00,axn,28.66
2022-12-08T02:16:00,axn,28.80
2022-12-08T02:17:00,axn,39.18
2022-12-08T02:18:00,axn,38.88
2022-12-08T02:19:00,axn,38.58
2022-12-08T02:20:00,axn,41.45
2022-12-08T02:21:00,axn,31.41
2022-12-08T02:22:00,axn,28.57
2022-12-08T02:23:00,axn,28.79
2022-12-08T02:24:00,axn,28.68
2022-12-08T02:25:00,axn,28.63
2022-12-08T02:26:00,axn,28.61
2022-12-08T02:27:00,axn,28.66
2022-12-08T02:28:00,axn,28.70
2022-12-08T02:29:00,axn,28.76
2022-12-08T02:30:00,axn,28.79
2022-12-08T02:31:00,axn,28.64
2022-12-08T02:32:00,axn,28.74
2022-12-08T02:33:00,axn,28.72
2022-12-08T02:34:00,axn,29.05
2022-12-08T02:35:00,axn,29.00
2022-12-08T02:36:00,axn,28.57
2022-12-08T02:37:00,axn,28.68
2022-12-08T02:38:00,axn,28.80
2022-12-08T02:39:00,axn,28.63
2022-12-08T02:40:00,axn,28.64
2022-12-08T02:41:00,axn,28.44
2022-12-08T02:42:00,axn,28.43
2022-12-08T02:43:00,axn,28.57
2022-12-08T02:44:00,axn,28.50
2022-12-08T02:45:00,axn,28.58
2022-12-08T02:46:00,axn,28.47
2022-12-08T02:47:00,axn,28.33
2022-12-08T02:48:00,axn,28.42
2022-12-08T02:49:00,axn,29.03
2022-12-08T02:50:00,axn,28.84
2022-12-08T02:51:00,axn,28.83
2022-12-08T02:52:00,axn,28.86
2022-12-08T02:53:00,axn,28.95
2022-12-08T02:54:00,axn,28.88
2022-12-08T02:55:00,axn,29.00
2022-12-08T02:56:00,axn,29.09
2022-12-08T02:57:00,axn,29.03
2022-12-08T02:58:00,axn,28.97
2022-12-08T02:59:00,axn,29.10
2022-12-08T03:00:00,axn,28.97
2022-12-08T03:01:00,axn,28.74
2022-12-08T03:02:00,axn,28.77
2022-12-08T03:03:00,axn,28.67
2022-12-08T03:04:00,axn,28.78
2022-12-08T03:05:00,axn,28.71
2022-12-08T03:06:00,axn,28.75
2022-12-08T03:07:00,axn,29.30
2022-12-08T03:08:00,axn,28.81
2022-12-08T03:09:00,axn,28.86
2022-12-08T03:10:00,axn,28.85
2022-12-08T03:11:00,axn,28.82
2022-12-08T03:12:00,axn,28.91
2022-12-08T03:13:00,axn,29.07
2022-12-08T03:14:00,axn,28.98
2022-12-08T03:15:00,axn,28.91
2022-12-08T03:16:00,axn,28.83
2022-12-08T03:17:00,axn,29.38
2022-12-08T03:18:00,axn,29.08
2022-12-08T03:19:00,axn,29.17
2022-12-08T03:20:00,axn,29.14
2022-12-08T03:21:00,axn,29.12
2022-12-08T03:22:00,axn,31.96
2022-12-08T03:23:00,axn,31.98
2022-12-08T03:24:00,axn,31.97
2022-12-08T03:25:00,axn,30.06
2022-12-08T03:26:00,axn,29.78
2022-12-08T03:27:00,axn,29.86
2022-12-08T03:28:00,axn,29.87
2022-12-08T03:29:00,axn,29.94
2022-12-08T03:30:00,axn,29.76
2022-12-08T03:31:00,axn,30.01
2022-12-08T03:32:00,axn,29.98
2022-12-08T03:33:00,axn,29.84
2022-12-08T03:34:00,axn,30.08
2022-12-08T03:35:00,axn,30.13
2022-12-08T03:36:00,axn,30.15
2022-12-08T03:37:00,axn,34.99
2022-12-08T03:38:00,axn,34.55
2022-12-08T03:39:00,axn,34.50
2022-12-08T03:40:00,axn,34.44
2022-12-08T03:41:00,axn,29.83
2022-12-08T03:42:00,axn,29.84
2022-12-08T03:43:00,axn,29.83
2022-12-08T03:44:00,axn,32.38
2022-12-08T03:45:00,axn,32.75
2022-12-08T03:46:00,axn,32.31
2022-12-08T03:47:00,axn,32.31
2022-12-08T03:48:00,axn,32.57
2022-12-08T03:49:00,axn,32.72
2022-12-08T03:50:00,axn,32.86
2022-12-08T03:51:00,axn,32.88
2022-12-08T03:52:00,axn,32.63
2022-12-08T03:53:00,axn,32.67
2022-12-08T03:54:00,axn,32.81
2022-12-08T03:55:00,axn,32.82
2022-12-08T03:56:00,axn,33.01
2022-12-08T03:57:00,axn,32.94
2022-12-08T03:58:00,axn,32.79
2022-12-08T03:59:00,axn,33.35
2022-12-08T04:00:00,axn,32.98
2022-12-08T04:01:00,axn,33.01
2022-12-08T04:02:00,axn,32.77
2022-12-08T04:03:00,axn,32.69
2022-12-08T04:04:00,axn,32.60
2022-12-08T04:05:00,axn,32.63
2022-12-08T04:06:00,axn,32.55
2022-12-08T04:07:00,axn,32.36
2022-12-08T04:08:00,axn,32.39
2022-12-08T04:09:00,axn,32.44
2022-12-08T04:10:00,axn,32.57
2022-12-08T04:11:00,axn,32.65
2022-12-08T04:12:00,axn,32.73
2022-12-08T04:13:00,axn,32.80
2022-12-08T04:14:00,axn,32.66
2022-12-08T04:15:00,axn,32.78
2022-12-08T04:16:00,axn,32.66
2022-12-08T04:17:00,axn,32.31
2022-12-08T04:18:00,axn,32.59
2022-12-08T04:19:00,axn,32.22
2022-12-08T04:20:00,axn,32.25
2022-12-08T04:21:00,axn,32.34
2022-12-08T04:22:00,axn,32.45
2022-12-08T04:23:00,axn,32.36
2022-12-08T04:24:00,axn,32.40
2022-12-08T04:25:00,axn,32.77
2022-12-08T04:26:00,axn,32.77
2022-12-08T04:27:00,axn,35.72
2022-12-08T04:28:00,axn,32.65
2022-12-08T04:29:00,axn,32.75
2022-12-08T04:30:00,axn,32.53
2022-12-08T04:31:00,axn,32.66
2022-12-08T04:32:00,axn,32.51
2022-12-08T04:33:00,axn,32.65
2022-12-08T04:34:00,axn,32.37
2022-12-08T04:35:00,axn,32.52
2022-12-08T04:36:00,axn,32.78
2022-12-08T04:37:00,axn,32.74
2022-12-08T04:38:00,axn,32.45
2022-12-08T04:39:00,axn,31.96
2022-12-08T04:40:00,axn,38.03
2022-12-08T04:41:00,axn,38.10
2022-12-08T04:42:00,axn,41.32
2022-12-08T04:43:00,axn,32.38
2022-12-08T04:44:00,axn,32.28
2022-12-08T04:45:00,axn,32.78
2022-12-08T04:46:00,axn,32.57
2022-12-08T04:47:00,axn,32.20
2022-12-08T04:48:00,axn,32.13
2022-12-08T04:49:00,axn,32.46
2022-12-08T04:50:00,axn,31.92
2022-12-08T04:51:00,axn,31.88
2022-12-08T04:52:00,axn,32.13
2022-12-08T04:53:00,axn,31.97
2022-12-08T04:54:00,axn,31.93
2022-12-08T04:55:00,axn,32.02
2022-12-08T04:56:00,axn,32.40
2022-12-08T04:57:00,axn,32.15
2022-12-08T04:58:00,axn,32.24
2022-12-08T04:59:00,axn,32.32
2022-12-08T05:00:00,axn,32.22
2022-12-08T05:01:00,axn,29.02
2022-12-08T05:02:00,axn,29.57
2022-12-08T05:03:00,axn,29.52
2022-12-08T05:04:00,axn,29.99
2022-12-08T05:05:00,axn,30.04
2022-12-08T05:06:00,axn,29.93
2022-12-08T05:07:00,axn,30.43
2022-12-08T05:08:00,axn,30.49
2022-12-08T05:09:00,axn,30.90
2022-12-08T05:10:00,axn,31.30
2022-12-08T05:11:00,axn,31.25
2022-12-08T05:12:00,axn,31.27
2022-12-08T05:13:00,axn,45.74
2022-12-08T05:14:00,axn,45.43
2022-12-08T05:15:00,axn,45.29
2022-12-08T05:16:00,axn,45.11
2022-12-08T05:17:00,axn,45.01
2022-12-08T05:18:00,axn,30.94
2022-12-08T05:19:00,axn,30.94
2022-12-08T05:20:00,axn,30.91
2022-12-08T05:21:00,axn,31.38
2022-12-08T05:22:00,axn,31.05
2022-12-08T05:23:00,axn,30.80
2022-12-08T05:24:00,axn,31.40
2022-12-08T05:25:00,axn,31.68
2022-12-08T05:26:00,axn,31.51
2022-12-08T05:27:00,axn,31.39
2022-12-08T05:28:00,axn,31.36
2022-12-08T05:29:00,axn,31.34
2022-12-08T05:30:00,axn,31.32
2022-12-08T05:31:00,axn,31.32
2022-12-08T05:32:00,axn,31.26
2022-12-08T05:33:00,axn,31.56
2022-12-08T05:34:00,axn,31.64
2022-12-08T05:35:00,axn,31.14
2022-12-08T05:36:00,axn,31.08
2022-12-08T05:37:00,axn,31.07
2022-12-08T05:38:00,axn,30.97
2022-12-08T05:39:00,axn,30.95
2022-12-08T05:40:00,axn,30.88
2022-12-08T05:41:00,axn,30.90
2022-12-08T05:42:00,axn,30.72
2022-12-08T05:43:00,axn,30.83
2022-12-08T05:44:00,axn,30.69
2022-12-08T05:45:00,axn,30.94
2022-12-08T05:46:00,axn,30.65
2022-12-08T05:47:00,axn,31.23
2022-12-08T05:48:00,axn,31.10
2022-12-08T05:49:00,axn,31.11
2022-12-08T05:50:00,axn,31.05
2022-12-08T05:51:00,axn,31.03
2022-12-08T05:52:00,axn,31.24
2022-12-08T05:53:00,axn,31.16
2022-12-08T05:54:00,axn,31.81
2022-12-08T05:55:00,axn,31.76
2022-12-08T05:56:00,axn,31.72
2022-12-08T05:57:00,axn,31.50
2022-12-08T05:58:00,axn,31.58
2022-12-08T05:59:00,axn,31.35
2022-12-08T06:00:00,axn,31.28
2022-12-08T06:01:00,axn,31.30
2022-12-08T06:02:00,axn,31.78
2022-12-08T06:03:00,axn,31.64
2022-12-08T06:04:00,axn,31.46
2022-12-08T06:05:00,axn,31.88
2022-12-08T06:06:00,axn,31.97
2022-12-08T06:07:00,axn,31.38
2022-12-08T06:08:00,axn,30.54
2022-12-08T06:09:00,axn,30.55
2022-12-08T06:10:00,axn,30.61
2022-12-08T06:11:00,axn,30.87
2022-12-08T06:12:00,axn,30.48
2022-12-08T06:13:00,axn,30.36
2022-12-08T06:14:00,axn,30.47
2022-12-08T06:15:00,axn,30.21
2022-12-08T06:16:00,axn,30.15
2022-12-08T06:17:00,axn,30.17
2022-12-08T06:18:00,axn,30.55
2022-12-08T06:19:00,axn,30.20
2022-12-08T06:20:00,axn,30.47
2022-12-08T06:21:00,axn,30.58
2022-12-08T06:22:00,axn,30.13
2022-12-08T06:23:00,axn,32.63
2022-12-08T06:24:00,axn,32.63
2022-12-08T06:25:00,axn,32.88
2022-12-08T06:26:00,axn,29.98
2022-12-08T06:27:00,axn,29.98
2022-12-08T06:28:00,axn,29.77
2022-12-08T06:29:00,axn,30.02
2022-12-08T06:30:00,axn,29.72
2022-12-08T06:31:00,axn,29.54
2022-12-08T06:32:00,axn,29.36
2022-12-08T06:33:00,axn,39.70
2022-12-08T06:34:00,axn,39.60
2022-12-08T06:35:00,axn,39.41
2022-12-08T06:36:00,axn,39.11
2022-12-08T06:37:00,axn,39.03
2022-12-08T06:38:00,axn,28.98
2022-12-08T06:39:00,axn,29.61
2022-12-08T06:40:00,axn,28.75
2022-12-08T06:41:00,axn,28.80
2022-12-08T06:42:00,axn,28.85
2022-12-08T06:43:00,axn,28.92
2022-12-08T06:44:00,axn,28.73
2022-12-08T06:45:00,axn,28.74
2022-12-08T06:46:00,axn,28.68
2022-12-08T06:47:00,axn,28.68
2022-12-08T06:48:00,axn,28.69
2022-12-08T06:49:00,axn,28.59
2022-12-08T06:50:00,axn,28.61
2022-12-08T06:51:00,axn,28.66
2022-12-08T06:52:00,axn,28.57
2022-12-08T06:53:00,axn,31.61
2022-12-08T06:54:00,axn,31.41
2022-12-08T06:55:00,axn,28.76
2022-12-08T06:56:00,axn,28.31
2022-12-08T06:57:00,axn,28.29
2022-12-08T06:58:00,axn,28.59
2022-12-08T06:59:00,axn,28.72
2022-12-08T07:00:00,axn,29.18
2022-12-08T07:01:00,axn,34.69
2022-12-08T07:02:00,axn,37.23
2022-12-08T07:03:00,axn,38.25
2022-12-08T07:04:00,axn,37.62
2022-12-08T07:05:00,axn,37.48
2022-12-08T07:06:00,axn,37.85
2022-12-08T07:07:00,axn,37.89
2022-12-08T07:08:00,axn,38.01
2022-12-08T07:09:00,axn,38.04
2022-12-08T07:10:00,axn,37.96
2022-12-08T07:11:00,axn,38.13
2022-12-08T07:12:00,axn,38.46
2022-12-08T07:13:00,axn,38.38
2022-12-08T07:14:00,axn,38.38
2022-12-08T07:15:00,axn,38.28
2022-12-08T07:16:00,axn,38.09
2022-12-08T07:17:00,axn,38.30
2022-12-08T07:18:00,axn,38.28
2022-12-08T07:19:00,axn,38.25
2022-12-08T07:20:00,axn,37.98
2022-12-08T07:21:00,axn,38.02
2022-12-08T07:22:00,axn,38.26
2022-12-08T07:23:00,axn,38.43
2022-12-08T07:24:00,axn,38.64
2022-12-08T07:25:00,axn,38.78
2022-12-08T07:26:00,axn,39.08
2022-12-08T07:27:00,axn,39.39
2022-12-08T07:28:00,axn,39.20
2022-12-08T07:29:00,axn,39.06
2022-12-08T07:30:00,axn,39.37
2022-12-08T07:31:00,axn,38.60
2022-12-08T07:32:00,axn,38.59
2022-12-08T07:33:00,axn,38.41
2022-12-08T07:34:00,axn,38.46
2022-12-08T07:35:00,axn,38.83
2022-12-08T07:36:00,axn,38.76
2022-12-08T07:37:00,axn,38.82
2022-12-08T07:38:00,axn,38.77
2022-12-08T07:39:00,axn,39.30
2022-12-08T07:40:00,axn,39.52
2022-12-08T07:41:00,axn,39.30
2022-12-08T07:42:00,axn,39.61
2022-12-08T07:43:00,axn,39.02
2022-12-08T07:44:00,axn,38.79
2022-12-08T07:45:00,axn,38.60
2022-12-08T07:46:00,axn,38.65
2022-12-08T07:47:00,axn,38.63
2022-12-08T07:48:00,axn,38.85
2022-12-08T07:49:00,axn,38.86
2022-12-08T07:50:00,axn,38.85
2022-12-08T07:51:00,axn,38.92
2022-12-08T07:52:00,axn,38.70
2022-12-08T07:53:00,axn,38.96
2022-12-08T07:54:00,axn,39.04
2022-12-08T07:55:00,axn,38.65
2022-12-08T07:56:00,axn,38.56
2022-12-08T07:57:00,axn,38.63
2022-12-08T07:58:00,axn,38.95
2022-12-08T07:59:00,axn,39.07
2022-12-08T08:00:00,axn,38.86
2022-12-08T08:01:00,axn,39.30
2022-12-08T08:02:00,axn,42.93
2022-12-08T08:03:00,axn,43.19
2022-12-08T08:04:00,axn,43.01
2022-12-08T08:05:00,axn,42.98
2022-12-08T08:06:00,axn,43.25
2022-12-08T08:07:00,axn,43.07
2022-12-08T08:08:00,axn,42.97
2022-12-08T08:09:00,axn,42.81
2022-12-08T08:10:00,axn,42.68
2022-12-08T08:11:00,axn,43.38
2022-12-08T08:12:00,axn,43.17
2022-12-08T08:13:00,axn,43.28
2022-12-08T08:14:00,axn,43.66
2022-12-08T08:15:00,axn,43.83
2022-12-08T08:16:00,axn,43.34
2022-12-08T08:17:00,axn,43.26
2022-12-08T08:18:00,axn,43.71
2022-12-08T08:19:00,axn,43.30
2022-12-08T08:20:00,axn,43.30
2022-12-08T08:21:00,axn,43.27
2022-12-08T08:22:00,axn,43.32
2022-12-08T08:23:00,axn,43.56
2022-12-08T08:24:00,axn,43.60
2022-12-08T08:25:00,axn,43.50
2022-12-08T08:26:00,axn,43.39
2022-12-08T08:27:00,axn,43.40
2022-12-08T08:28:00,axn,44.24
2022-12-08T08:29:00,axn,43.29
2022-12-08T08:30:00,axn,43.87
2022-12-08T08:31:00,axn,44.29
2022-12-08T08:32:00,axn,43.64
2022-12-08T08:33:00,axn,44.02
2022-12-08T08:34:00,axn,43.63
2022-12-08T08:35:00,axn,43.58
2022-12-08T08:36:00,axn,43.65
2022-12-08T08:37:00,axn,43.63
2022-12-08T08:38:00,axn,43.59
2022-12-08T08:39:00,axn,44.00
2022-12-08T08:40:00,axn,44.13
2022-12-08T08:41:00,axn,44.52
2022-12-08T08:42:00,axn,44.29
2022-12-08T08:43:00,axn,44.20
2022-12-08T08:44:00,axn,43.86
2022-12-08T08:45:00,axn,43.77
2022-12-08T08:46:00,axn,43.76
2022-12-08T08:47:00,axn,43.54
2022-12-08T08:48:00,axn,43.62
2022-12-08T08:49:00,axn,43.83
2022-12-08T08:50:00,axn,44.83
2022-12-08T08:51:00,axn,44.81
2022-12-08T08:52:00,axn,44.66
2022-12-08T08:53:00,axn,43.83
2022-12-08T08:54:00,axn,44.11
2022-12-08T08:55:00,axn,44.81
2022-12-08T08:56:00,axn,44.09
2022-12-08T08:57:00,axn,44.24
2022-12-08T08:58:00,axn,44.08
2022-12-08T08:59:00,axn,44.06
2022-12-08T09:00:00,axn,44.82
2022-12-08T09:01:00,axn,44.58
2022-12-08T09:02:00,axn,44.79
2022-12-08T09:03:00,axn,44.55
2022-12-08T09:04:00,axn,44.08
2022-12-08T09:05:00,axn,44.26
2022-12-08T09:06:00,axn,43.99
2022-12-08T09:07:00,axn,47.79
2022-12-08T09:08:00,axn,43.92
2022-12-08T09:09:00,axn,46.73
2022-12-08T09:10:00,axn,47.34
2022-12-08T09:11:00,axn,46.85
2022-12-08T09:12:00,axn,44.33
2022-12-08T09:13:00,axn,44.59
2022-12-08T09:14:00,axn,44.57
2022-12-08T09:15:00,axn,44.48
2022-12-08T09:16:00,axn,44.68
2022-12-08T09:17:00,axn,46.07
2022-12-08T09:18:00,axn,45.47
2022-12-08T09:19:00,axn,45.62
2022-12-08T09:20:00,axn,45.20
2022-12-08T09:21:00,axn,44.74
2022-12-08T09:22:00,axn,44.83
2022-12-08T09:23:00,axn,44.82
2022-12-08T09:24:00,axn,45.30
2022-12-08T09:25:00,axn,45.73
2022-12-08T09:26:00,axn,46.41
2022-12-08T09:27:00,axn,46.10
2022-12-08T09:28:00,axn,47.00
2022-12-08T09:29:00,axn,46.02
2022-12-08T09:30:00,axn,46.34
2022-12-08T09:31:00,axn,46.01
2022-12-08T09:32:00,axn,46.01
2022-12-08T09:33:00,axn,46.43
2022-12-08T09:34:00,axn,46.12
2022-12-08T09:35:00,axn,46.40
2022-12-08T09:36:00,axn,46.55
2022-12-08T09:37:00,axn,46.38
2022-12-08T09:38:00,axn,60.70
2022-12-08T09:39:00,axn,61.29
2022-12-08T09:40:00,axn,61.32
2022-12-08T09:41:00,axn,61.18
2022-12-08T09:42:00,axn,59.98
2022-12-08T09:43:00,axn,60.68
2022-12-08T09:44:00,axn,46.57
2022-12-08T09:45:00,axn,47.43
2022-12-08T09:46:00,axn,47.32
2022-12-08T09:47:00,axn,47.46
2022-12-08T09:48:00,axn,50.35
2022-12-08T09:49:00,axn,50.07
2022-12-08T09:50:00,axn,50.16
2022-12-08T09:51:00,axn,49.77
2022-12-08T09:52:00,axn,46.91
2022-12-08T09:53:00,axn,47.72
2022-12-08T09:54:00,axn,47.91
2022-12-08T09:55:00,axn,48.08
2022-12-08T09:56:00,axn,47.82
2022-12-08T09:57:00,axn,47.93
2022-12-08T09:58:00,axn,47.76
2022-12-08T09:59:00,axn,48.10
2022-12-08T10:00:00,axn,47.72
2022-12-08T10:01:00,axn,47.88
2022-12-08T10:02:00,axn,48.27
2022-12-08T10:03:00,axn,48.48
2022-12-08T10:04:00,axn,48.57
2022-12-08T10:05:00,axn,48.58
2022-12-08T10:06:00,axn,48.85
2022-12-08T10:07:00,axn,48.93
2022-12-08T10:08:00,axn,48.63
2022-12-08T10:09:00,axn,49.01
2022-12-08T10:10:00,axn,48.16
2022-12-08T10:11:00,axn,48.31
2022-12-08T10:12:00,axn,48.24
2022-12-08T10:13:00,axn,48.25
2022-12-08T10:14:00,axn,48.30
2022-12-08T10:15:00,axn,48.73
2022-12-08T10:16:00,axn,48.39
2022-12-08T10:17:00,axn,49.14
2022-12-08T10:18:00,axn,48.64
2022-12-08T10:19:00,axn,48.41
2022-12-08T10:20:00,axn,48.61
2022-12-08T10:21:00,axn,59.04
2022-12-08T10:22:00,axn,59.27
2022-12-08T10:23:00,axn,58.25
2022-12-08T10:24:00,axn,59.00
2022-12-08T10:25:00,axn,49.19
2022-12-08T10:26:00,axn,48.50
2022-12-08T10:27:00,axn,57.30
2022-12-08T10:28:00,axn,56.59
2022-12-08T10:29:00,axn,56.32
2022-12-08T10:30:00,axn,56.65
2022-12-08T10:31:00,axn,56.41
2022-12-08T10:32:00,axn,56.48
2022-12-08T10:33:00,axn,56.49
2022-12-08T10:34:00,axn,56.44
2022-12-08T10:35:00,axn,58.84
2022-12-08T10:36:00,axn,59.10
2022-12-08T10:37:00,axn,56.22
2022-12-08T10:38:00,axn,57.04
2022-12-08T10:39:00,axn,56.45
2022-12-08T10:40:00,axn,56.43
2022-12-08T10:41:00,axn,58.97
2022-12-08T10:42:00,axn,59.83
2022-12-08T10:43:00,axn,60.01
2022-12-08T10:44:00,axn,56.66
2022-12-08T10:45:00,axn,56.87
2022-12-08T10:46:00,axn,56.80
2022-12-08T10:47:00,axn,56.74
2022-12-08T10:48:00,axn,56.21
2022-12-08T10:49:00,axn,56.09
2022-12-08T10:50:00,axn,56.14
2022-12-08T10:51:00,axn,55.92
2022-12-08T10:52:00,axn,56.15
2022-12-08T10:53:00,axn,56.03
2022-12-08T10:54:00,axn,55.97
2022-12-08T10:55:00,axn,55.77
2022-12-08T10:56:00,axn,56.17
2022-12-08T10:57:00,axn,55.83
2022-12-08T10:58:00,axn,56.65
2022-12-08T10:59:00,axn,56.80
2022-12-08T11:00:00,axn,56.84
2022-12-08T11:01:00,axn,49.83
2022-12-08T11:02:00,axn,49.52
2022-12-08T11:03:00,axn,49.54
2022-12-08T11:04:00,axn,50.83
2022-12-08T11:05:00,axn,50.59
2022-12-08T11:06:00,axn,50.34
2022-12-08T11:07:00,axn,49.65
2022-12-08T11:08:00,axn,49.25
2022-12-08T11:09:00,axn,49.68
2022-12-08T11:10:00,axn,50.65
2022-12-08T11:11:00,axn,49.46
2022-12-08T11:12:00,axn,53.82
2022-12-08T11:13:00,axn,53.98
2022-12-08T11:14:00,axn,53.63
2022-12-08T11:15:00,axn,53.32
2022-12-08T11:16:00,axn,51.95
2022-12-08T11:17:00,axn,51.81
2022-12-08T11:18:00,axn,51.96
2022-12-08T11:19:00,axn,49.39
2022-12-08T11:20:00,axn,49.31
2022-12-08T11:21:00,axn,49.41
2022-12-08T11:22:00,axn,49.54
2022-12-08T11:23:00,axn,49.66
2022-12-08T11:24:00,axn,49.61
2022-12-08T11:25:00,axn,49.40
2022-12-08T11:26:00,axn,49.16
2022-12-08T11:27:00,axn,49.16
2022-12-08T11:28:00,axn,48.40
2022-12-08T11:29:00,axn,48.76
2022-12-08T11:30:00,axn,48.77
2022-12-08T11:31:00,axn,51.43
2022-12-08T11:32:00,axn,51.58
2022-12-08T11:33:00,axn,48.42
2022-12-08T11:34:00,axn,48.86
2022-12-08T11:35:00,axn,63.97
2022-12-08T11:36:00,axn,47.42
2022-12-08T11:37:00,axn,47.21
2022-12-08T11:38:00,axn,47.13
2022-12-08T11:39:00,axn,47.03
2022-12-08T11:40:00,axn,47.20
2022-12-08T11:41:00,axn,47.59
2022-12-08T11:42:00,axn,47.21
2022-12-08T11:43:00,axn,47.15
2022-12-08T11:44:00,axn,47.67
2022-12-08T11:45:00,axn,47.88
2022-12-08T11:46:00,axn,48.20
2022-12-08T11:47:00,axn,48.04
2022-12-08T11:48:00,axn,48.00
2022-12-08T11:49:00,axn,47.79
2022-12-08T11:50:00,axn,48.16
2022-12-08T11:51:00,axn,48.14
2022-12-08T11:52:00,axn,48.32
2022-12-08T11:53:00,axn,48.27
2022-12-08T11:54:00,axn,48.14
2022-12-08T11:55:00,axn,48.42
2022-12-08T11:56:00,axn,51.09
2022-12-08T11:57:00,axn,51.23
2022-12-08T11:58:00,axn,51.53
2022-12-08T11:59:00,axn,48.77
2022-12-08T12:00:00,axn,48.75
2022-12-08T12:01:00,axn,48.41
2022-12-08T12:02:00,axn,48.41
2022-12-08T12:03:00,axn,48.41
2022-12-08T12:04:00,axn,48.05
2022-12-08T12:05:00,axn,48.02
2022-12-08T12:06:00,axn,47.71
2022-12-08T12:07:00,axn,47.67
2022-12-08T12:08:00,axn,46.89
2022-12-08T12:09:00,axn,46.97
2022-12-08T12:10:00,axn,46.19
2022-12-08T12:11:00,axn,46.31
2022-12-08T12:12:00,axn,46.87
2022-12-08T12:13:00,axn,46.37
2022-12-08T12:14:00,axn,46.26
2022-12-08T12:15:00,axn,46.25
2022-12-08T12:16:00,axn,46.49
2022-12-08T12:17:00,axn,47.04
2022-12-08T12:18:00,axn,46.85
2022-12-08T12:19:00,axn,46.52
2022-12-08T12:20:00,axn,46.07
2022-12-08T12:21:00,axn,45.79
2022-12-08T12:22:00,axn,63.73
2022-12-08T12:23:00,axn,46.16
2022-12-08T12:24:00,axn,46.26
2022-12-08T12:25:00,axn,54.48
2022-12-08T12:26:00,axn,54.26
2022-12-08T12:27:00,axn,54.31
2022-12-08T12:28:00,axn,56.95
2022-12-08T12:29:00,axn,54.13
2022-12-08T12:30:00,axn,54.15
2022-12-08T12:31:00,axn,54.52
2022-12-08T12:32:00,axn,54.44
2022-12-08T12:33:00,axn,54.11
2022-12-08T12:34:00,axn,53.97
2022-12-08T12:35:00,axn,53.87
2022-12-08T12:36:00,axn,53.60
2022-12-08T12:37:00,axn,54.46
2022-12-08T12:38:00,axn,53.81
2022-12-08T12:39:00,axn,54.08
2022-12-08T12:40:00,axn,53.75
2022-12-08T12:41:00,axn,53.53
2022-12-08T12:42:00,axn,59.30
2022-12-08T12:43:00,axn,74.77
2022-12-08T12:44:00,axn,61.74
2022-12-08T12:45:00,axn,56.15
2022-12-08T12:46:00,axn,56.00
2022-12-08T12:47:00,axn,56.06
2022-12-08T12:48:00,axn,53.15
2022-12-08T12:49:00,axn,53.49
2022-12-08T12:50:00,axn,52.94
2022-12-08T12:51:00,axn,52.83
2022-12-08T12:52:00,axn,53.08
2022-12-08T12:53:00,axn,52.90
2022-12-08T12:54:00,axn,52.95
2022-12-08T12:55:00,axn,52.70
2022-12-08T12:56:00,axn,52.46
2022-12-08T12:57:00,axn,53.12
2022-12-08T12:58:00,axn,44.68
2022-12-08T12:59:00,axn,44.61
2022-12-08T13:00:00,axn,45.01
2022-12-08T13:01:00,axn,46.37
2022-12-08T13:02:00,axn,44.42
2022-12-08T13:03:00,axn,44.99
2022-12-08T13:04:00,axn,44.51
2022-12-08T13:05:00,axn,44.54
2022-12-08T13:06:00,axn,44.50
2022-12-08T13:07:00,axn,44.65
2022-12-08T13:08:00,axn,44.26
2022-12-08T13:09:00,axn,45.19
2022-12-08T13:10:00,axn,45.15
2022-12-08T13:11:00,axn,45.20
2022-12-08T13:12:00,axn,45.11
2022-12-08T13:13:00,axn,45.83
2022-12-08T13:14:00,axn,45.36
2022-12-08T13:15:00,axn,45.03
2022-12-08T13:16:00,axn,45.66
2022-12-08T13:17:00,axn,45.76
2022-12-08T13:18:00,axn,63.97